GFSCGP_850_temp_078.txt.gz
Temp
31 31 31 32 33 34 34 34 34 36 37 36 35 35 36 37 37 37 35 34 32 31 30 29 28 27 26 25 23 22 22 22 21 20 20 20 20 19 20 19 19 19 19 18
32 31 33 34 34 34 34 34 34 35 36 35 35 35 36 37 37 37 37 35 33 32 31 30 28 27 26 25 23 22 23 23 21 21 21 21 20 20 19 19 19 18 18 17
31 33 34 34 34 33 34 33 33 33 35 36 35 34 35 36 37 37 37 36 35 33 32 30 28 27 26 25 24 22 24 23 22 21 22 20 20 20 20 20 19 19 18 18
32 34 34 34 34 34 32 34 34 34 33 32 35 32 34 36 36 37 37 36 36 34 33 31 28 27 27 25 23 23 24 22 23 22 21 21 19 19 19 19 19 19 19 18
32 33 33 33 33 34 33 34 34 34 33 33 33 33 34 35 34 36 36 35 35 34 33 31 28 27 27 26 23 24 22 22 22 22 20 19 20 20 20 20 20 19 19 18
33 34 34 34 34 34 34 33 33 33 33 31 32 33 33 35 32 32 35 35 34 34 34 32 29 27 27 25 23 24 23 21 22 22 21 20 20 20 19 19 19 18 18 18
32 32 34 34 33 34 33 32 30 30 30 30 34 33 33 36 34 35 35 35 34 33 33 32 30 27 26 24 24 23 23 22 21 21 20 19 20 20 19 19 19 19 18 18
30 29 32 34 33 32 32 32 31 28 30 32 34 32 34 37 36 35 36 35 34 33 33 32 29 27 24 22 23 20 21 21 21 19 19 18 19 19 19 19 18 18 17 17
30 30 34 34 34 34 32 32 33 31 32 32 33 35 35 35 36 36 36 33 33 32 31 31 27 24 23 21 21 20 19 18 18 18 19 18 20 19 19 18 18 18 17 17
31 30 33 34 35 34 33 34 31 32 29 29 32 33 31 33 35 33 32 31 30 30 30 28 25 24 23 22 20 20 20 21 19 19 19 18 19 18 18 18 18 18 16 17
33 31 31 33 33 33 33 32 32 33 32 31 30 31 32 31 32 32 31 30 29 29 28 28 26 24 23 22 21 20 20 22 21 21 19 19 18 18 18 18 17 16 17 17
33 32 30 31 34 34 34 33 32 31 30 32 31 31 32 33 33 32 30 29 29 28 28 27 27 24 24 23 22 21 20 20 19 19 19 18 18 18 18 17 17 17 17 17
30 31 29 30 32 33 32 33 33 33 32 30 30 27 32 32 32 31 30 29 28 28 27 26 25 24 24 23 22 21 21 22 22 19 18 18 19 18 18 17 17 17 17 17
29 30 29 29 30 31 31 32 33 33 30 31 31 32 29 30 29 30 29 29 28 27 27 26 25 25 24 23 22 21 20 21 22 20 18 18 18 18 17 17 17 17 17 16
30 27 29 31 32 32 32 31 32 32 32 31 29 26 21 18 25 29 29 28 27 27 26 25 24 24 24 23 21 19 19 19 20 19 18 18 18 18 17 17 17 16 16 16
26 27 29 29 31 32 31 32 31 31 33 32 32 29 24 25 27 28 28 28 27 27 26 25 25 24 23 22 21 20 19 19 19 19 19 18 18 18 17 17 17 16 16 16
19 24 27 27 30 30 29 31 32 32 32 32 31 25 24 25 25 25 26 27 28 27 27 26 25 24 23 22 21 20 19 20 20 20 18 18 19 18 17 17 17 16 16 16
15 13 26 26 28 26 28 27 31 32 29 29 22 18 18 19 24 23 22 24 24 24 23 23 24 24 24 23 22 21 20 19 19 19 18 18 18 17 17 17 17 17 17 16
27 26 26 26 27 23 26 22 20 18 26 28 22 23 18 23 23 22 21 22 22 20 19 19 20 21 22 23 23 22 20 19 19 19 18 18 18 18 17 17 17 17 17 16
28 27 25 26 25 22 19 20 18 18 21 25 25 25 26 25 22 22 21 21 20 20 20 19 19 20 20 21 21 21 21 20 19 19 19 18 18 18 17 17 17 17 17 17
25 26 25 25 25 24 19 18 16 18 19 22 22 22 22 20 20 20 20 19 19 19 19 19 19 19 20 20 20 20 20 17 14 17 18 18 18 17 17 17 17 17 17 16
20 15 23 26 25 24 19 18 19 19 20 21 21 21 20 20 19 19 19 18 18 18 19 19 19 19 18 18 18 18 19 19 14 13 18 18 18 18 17 17 17 17 17 17
15 13 13 20 19 20 19 19 20 20 20 20 20 20 20 19 19 19 18 17 17 17 17 18 18 19 18 17 17 17 16 16 14 15 13 17 18 18 17 17 17 17 17 17
19 15 20 17 19 20 19 19 18 19 19 19 20 19 19 19 19 18 17 16 16 16 16 16 17 17 17 16 16 16 16 16 16 16 16 16 17 17 17 17 17 17 17 17
14 13 15 14 20 20 19 19 19 19 18 19 19 19 19 18 18 18 17 16 16 15 14 14 15 15 15 16 15 15 15 15 16 16 17 17 18 17 17 17 17 17 17 17
12 12 12 11 11 18 19 19 19 18 18 18 18 18 18 18 17 17 16 15 14 14 13 13 13 13 14 15 15 14 14 14 15 15 16 16 17 17 17 17 18 17 17 17

GFSCGP_850_temp_084.txt.gz
Temp
27 23 22 24 23 25 24 25 25 27 29 29 29 28 31 31 29 29 28 27 26 27 29 27 26 26 25 25 25 24 24 23 22 21 21 21 21 20 20 20 19 19 18 18
24 23 25 26 26 26 26 25 25 27 29 27 28 28 28 29 30 30 28 27 27 27 27 27 27 26 26 25 25 25 24 23 22 22 22 21 20 20 20 20 19 19 19 18
24 26 27 27 27 27 26 24 26 26 28 28 29 26 27 28 30 32 31 31 29 28 29 27 27 27 26 25 25 25 25 24 23 22 21 20 20 20 20 20 20 20 19 18
25 27 27 27 27 27 24 27 28 28 27 24 27 23 24 26 26 27 31 30 28 28 29 28 28 27 26 26 25 25 25 24 23 22 22 21 20 20 20 20 20 20 19 18
26 27 26 26 27 28 26 28 28 28 27 24 25 23 23 25 27 27 28 29 29 28 29 28 29 28 26 26 25 25 25 24 23 22 22 22 20 20 19 19 19 19 18 18
26 28 27 27 28 28 29 27 25 22 21 22 24 23 26 24 27 27 28 29 28 28 29 31 29 26 26 25 25 24 24 23 22 22 22 22 21 19 19 19 19 19 19 18
25 25 27 29 27 27 28 22 21 22 21 21 24 24 25 26 25 27 27 28 28 29 31 28 27 26 26 25 25 24 24 23 22 22 21 22 21 21 19 18 18 19 19 18
22 23 26 28 26 26 26 23 20 22 21 22 23 24 27 27 30 32 30 29 29 30 30 29 28 26 25 26 25 24 23 23 22 20 21 22 20 20 18 19 18 18 18 18
22 23 27 27 28 27 26 25 23 21 21 20 22 24 25 26 27 26 29 30 30 31 30 28 26 26 25 26 25 24 23 22 20 20 21 20 19 18 18 20 18 18 18 17
25 22 26 28 29 29 26 26 25 19 24 22 21 23 23 26 26 25 25 26 28 28 26 25 25 25 25 25 24 23 23 22 20 21 21 20 20 19 18 18 18 18 18 17
25 21 24 25 26 26 25 25 24 21 19 21 21 23 24 22 25 23 23 24 26 26 26 25 25 24 24 24 23 22 22 21 21 21 20 19 19 18 18 18 18 17 17 17
23 22 20 25 27 27 27 27 25 24 22 19 20 22 22 22 23 25 24 23 22 22 23 23 24 24 23 22 22 21 21 20 21 20 19 20 20 19 18 18 18 18 17 17
22 20 19 23 24 27 27 26 26 21 18 20 21 21 22 21 21 24 23 24 25 25 24 23 23 23 22 22 22 21 21 21 21 20 20 21 20 20 20 19 18 18 17 17
22 19 19 19 21 23 26 28 26 22 23 22 21 23 22 20 20 18 21 23 25 26 26 25 24 23 22 22 22 22 22 21 21 21 21 21 20 19 19 18 18 18 17 17
19 18 19 19 22 24 27 28 27 25 25 24 24 22 20 17 18 18 23 24 26 25 24 23 23 22 23 23 23 22 22 21 21 21 22 20 19 18 18 18 17 17 17 17
18 18 17 21 21 24 26 23 25 19 19 20 22 22 19 19 19 19 21 23 23 23 24 24 24 23 23 23 23 22 21 21 20 20 20 20 19 18 18 18 17 17 17 16
18 16 17 20 19 23 21 20 20 17 16 15 20 16 18 19 19 19 18 21 21 20 21 23 23 23 23 23 23 22 21 20 20 20 20 19 19 18 18 17 17 17 17 16
15 14 13 18 19 20 19 19 18 16 16 16 16 16 14 15 15 15 17 18 19 22 22 23 22 22 22 22 22 22 22 21 21 19 19 19 18 17 17 17 16 16 16 16
15 13 15 18 17 19 18 18 18 18 16 15 16 15 14 15 16 15 17 18 19 20 18 19 19 22 21 21 21 21 21 20 20 19 19 19 18 18 18 18 18 17 16 16
16 14 17 15 18 17 15 17 18 17 18 15 15 15 15 14 12 14 15 17 16 17 18 18 19 19 19 20 20 21 20 19 19 19 19 19 19 19 19 19 20 20 18 20
13 12 15 15 18 15 15 14 17 19 16 13 14 14 16 14 14 15 17 17 17 17 18 18 18 18 17 18 18 19 18 18 18 18 18 18 18 18 18 17 17 19 19 20
12 12 12 13 15 16 15 16 16 14 13 15 15 15 15 16 16 16 16 16 16 17 18 17 17 16 16 16 17 17 17 17 17 17 17 18 18 17 17 17 15 12 14 18
13 12 12 12 12 13 13 13 13 14 13 14 15 16 15 15 15 16 17 16 16 16 16 16 16 15 15 14 15 16 16 16 16 16 17 16 16 16 15 15 14 12 12 12
12 12 11 12 12 12 12 12 12 16 13 14 15 15 15 15 16 16 17 16 16 15 15 14 14 14 14 14 14 14 14 15 15 15 16 15 15 16 15 15 15 15 17 16
13 12 12 11 11 11 11 13 14 13 12 13 15 16 17 16 16 16 15 14 14 14 13 13 13 13 13 13 13 13 14 14 14 14 14 14 14 15 15 15 16 16 16 16
12 11 10 11 12 13 13 13 15 14 15 17 17 17 16 16 15 15 15 14 14 13 13 13 12 12 12 12 13 13 13 12 12 12 12 13 14 15 15 16 17 17 16 16

GFSCGP_850_temp_087.txt.gz
Temp
24 21 20 22 21 24 23 24 23 24 26 27 26 25 27 28 27 27 26 25 25 25 27 25 25 25 24 24 24 23 23 23 22 21 20 20 20 20 20 19 19 19 19 18
22 21 23 24 23 24 23 23 22 23 26 25 24 25 25 26 27 27 26 25 25 26 25 25 24 25 25 25 24 24 24 23 22 22 22 21 21 20 20 19 19 19 19 19
23 24 25 25 24 24 23 22 23 23 25 25 25 24 25 26 28 28 27 27 27 28 26 25 24 25 25 25 25 25 24 24 23 22 21 21 20 20 20 20 20 20 19 19
22 25 25 25 24 24 21 24 25 25 24 24 25 22 23 26 24 25 28 27 27 28 26 26 26 25 26 27 25 25 25 24 23 22 21 21 21 21 20 19 19 19 19 19
22 24 23 24 25 25 24 25 24 24 23 23 24 21 22 24 25 25 26 27 30 31 26 26 28 28 28 27 26 25 25 24 23 22 22 21 21 21 20 19 19 20 19 18
22 26 25 25 26 25 26 26 22 19 19 20 22 21 22 24 25 26 27 31 30 28 27 27 30 27 26 27 26 25 25 24 24 22 22 22 22 21 20 20 20 19 19 18
23 24 26 26 26 25 26 21 20 20 19 21 21 22 22 24 26 25 27 30 31 28 26 26 26 25 25 27 26 25 25 24 24 22 22 21 20 20 19 19 19 19 19 18
21 21 24 26 24 24 22 20 18 21 20 23 20 21 24 26 26 28 29 31 30 27 27 27 27 27 26 27 26 25 25 24 23 22 21 20 20 19 18 18 18 19 18 18
20 21 26 26 26 25 25 22 22 21 19 19 20 22 24 25 24 24 24 27 28 27 27 27 27 26 26 26 25 25 25 24 23 22 21 21 20 20 19 20 18 18 18 18
23 21 24 25 26 26 25 24 24 19 22 22 20 22 21 23 23 22 23 24 26 27 27 27 26 25 25 25 24 24 24 24 22 21 20 21 21 21 21 19 19 18 18 18
22 19 22 24 23 23 24 23 22 20 18 20 20 20 20 23 21 20 19 20 22 23 23 23 22 23 24 24 23 24 23 23 21 21 21 20 20 20 20 18 18 18 18 18
21 17 19 23 24 25 24 23 23 22 21 16 18 20 21 21 21 21 21 20 21 20 20 21 21 20 20 22 22 23 23 22 21 20 20 20 20 20 19 18 18 17 18 18
21 17 17 19 22 24 25 25 22 19 17 18 20 21 20 20 21 22 21 22 22 23 23 22 21 21 22 21 22 22 22 21 21 20 20 20 19 19 19 18 18 18 18 17
20 16 18 18 20 21 20 23 23 20 19 18 19 22 22 20 20 19 22 26 27 26 26 25 23 24 25 22 23 23 21 20 20 20 20 20 19 19 19 18 18 18 18 18
18 19 16 18 19 20 22 22 23 21 20 21 22 21 20 17 15 16 20 20 24 26 25 23 24 25 24 23 22 21 20 20 20 20 21 20 20 19 19 18 18 18 17 17
15 18 17 17 21 21 22 20 21 19 18 20 19 18 15 16 16 15 15 16 18 19 22 24 23 23 23 23 22 21 21 21 21 21 21 21 20 20 18 18 18 17 17 17
18 18 19 19 19 19 19 18 18 16 17 16 18 16 16 15 15 14 14 14 15 17 20 23 23 23 23 23 22 22 21 21 20 20 19 19 19 19 18 18 17 17 17 17
15 15 13 17 17 18 18 18 18 17 17 16 16 15 16 14 13 12 13 15 15 16 16 18 23 23 22 22 22 21 21 20 19 19 19 19 19 18 18 18 17 17 18 18
15 14 15 18 16 17 19 18 17 16 18 16 15 15 14 15 15 14 14 16 16 13 15 15 18 20 21 21 22 21 20 20 20 20 20 20 19 18 18 18 18 18 18 19
13 13 17 15 18 17 17 16 15 16 16 15 15 14 14 15 14 12 16 17 16 14 17 14 17 18 20 22 22 21 20 20 19 19 19 18 18 17 17 17 17 17 18 19
11 11 13 14 16 15 15 14 14 17 16 12 14 14 15 14 15 14 14 15 16 15 15 16 18 19 17 18 18 20 20 18 18 18 17 17 16 16 16 16 16 16 16 16
11 12 12 12 15 15 13 14 16 13 13 13 14 14 13 13 14 15 14 15 17 17 17 17 18 16 16 16 17 17 17 17 16 16 15 15 15 15 15 15 16 14 14 15
13 11 11 12 12 10 12 13 12 11 12 13 14 15 13 14 15 14 14 14 15 14 14 14 14 14 14 15 15 14 14 15 15 15 15 14 14 15 15 15 16 15 15 15
13 10 11 11 11 12 12 11 12 14 15 14 14 14 14 15 15 14 14 13 14 15 15 14 14 15 14 14 13 13 14 14 14 14 14 13 13 13 14 15 15 15 16 16
13 11 11 10 11 12 12 11 13 15 15 16 15 14 14 15 16 14 14 13 13 12 13 14 14 14 14 13 13 13 13 13 13 13 13 12 13 13 14 15 14 15 16 15
12 11 10 10 12 11 13 13 12 13 14 14 14 13 14 16 15 15 14 13 13 12 12 12 12 12 12 12 12 12 12 12 12 12 12 12 13 13 12 13 13 14 15 14

GFSCGP_850_temp_093.txt.gz
Temp
22 24 24 25 26 27 27 26 26 26 28 27 28 28 29 30 30 30 28 26 25 25 23 23 27 25 25 24 23 23 22 22 21 21 20 20 20 20 20 19 19 18 18 18
23 23 24 25 26 25 26 26 26 26 27 26 28 28 29 30 29 29 29 27 25 25 24 22 25 26 25 25 25 23 23 23 22 21 21 20 20 20 20 20 19 19 18 18
24 26 24 24 25 24 25 25 26 26 27 27 26 27 28 30 29 28 29 28 26 25 24 23 23 26 26 26 25 25 24 23 23 22 21 20 20 20 20 20 19 19 19 19
24 25 24 24 24 25 25 26 26 26 26 26 26 26 28 29 29 29 30 28 27 25 24 23 25 26 26 27 26 25 24 23 23 23 22 21 21 21 21 21 20 20 19 19
25 24 24 24 25 26 26 26 26 26 26 25 27 26 28 28 29 31 31 31 30 29 26 25 24 26 28 26 28 26 26 24 23 23 23 22 22 21 20 20 20 20 19 19
24 23 24 26 26 26 27 26 24 23 25 25 27 26 28 29 29 31 31 30 31 32 29 28 27 23 25 26 27 26 26 25 24 23 23 23 22 22 20 20 20 19 19 18
24 25 25 25 25 25 25 25 24 24 24 25 25 25 27 30 30 29 31 30 29 29 30 30 27 24 23 25 26 27 26 26 25 24 23 23 22 21 21 20 19 19 19 18
23 24 25 26 26 26 25 26 24 23 24 26 23 26 28 29 28 27 26 27 27 26 28 30 28 24 23 24 26 27 26 25 25 24 24 23 22 21 21 20 19 18 18 19
23 24 25 25 27 27 23 24 26 23 22 23 26 27 28 28 29 29 26 25 25 25 26 29 27 23 23 23 25 27 26 25 25 25 24 23 22 22 21 20 20 19 19 19
23 22 25 26 26 25 26 26 25 24 21 22 25 26 26 28 29 27 25 22 21 21 22 23 23 22 21 22 24 25 25 25 25 25 24 23 22 22 22 21 20 19 19 19
22 22 25 24 25 25 25 25 24 26 23 24 24 26 27 26 25 23 23 20 20 20 21 21 21 20 20 21 24 24 23 24 24 24 23 23 22 22 22 21 20 19 19 19
21 22 23 25 24 24 24 24 25 24 21 24 24 26 25 24 23 22 22 20 19 19 19 20 19 19 20 22 24 24 24 24 24 24 23 22 22 22 22 21 20 19 19 19
22 22 23 24 24 24 23 22 24 23 22 25 25 26 24 22 22 19 20 20 19 17 18 18 18 18 18 18 19 22 24 24 24 24 23 22 22 21 21 21 20 19 19 19
19 20 21 22 22 22 21 22 21 21 22 25 26 27 26 21 19 18 17 18 19 19 18 17 18 18 18 18 19 18 18 22 24 24 24 23 22 21 21 20 19 19 19 19
21 20 20 22 22 22 22 22 21 21 21 22 26 24 19 17 16 16 16 16 17 18 19 18 17 17 23 18 18 18 18 17 17 19 23 21 23 21 20 19 19 19 19 18
19 20 20 21 22 22 22 21 21 21 20 21 22 22 16 15 15 16 16 16 16 16 16 17 18 17 17 20 17 22 23 19 18 18 17 21 23 21 20 19 19 19 18 18
17 19 20 20 21 22 22 20 19 19 20 18 19 18 15 15 17 17 16 16 17 16 16 19 19 20 21 20 19 20 20 21 18 17 18 18 21 20 19 19 19 19 18 18
16 16 18 20 21 20 19 18 18 17 18 18 17 16 16 16 15 14 14 15 15 15 15 18 19 21 20 21 20 21 23 23 19 17 17 18 19 19 18 18 18 18 18 17
15 16 19 20 21 21 18 18 18 17 17 16 15 15 15 15 15 15 13 14 14 14 15 15 17 17 18 19 19 20 19 20 20 19 16 18 18 18 17 17 17 17 17 17
15 14 16 18 20 20 18 17 14 16 15 14 14 16 16 16 18 17 13 13 13 15 15 15 15 14 15 15 16 16 15 14 13 15 18 17 17 17 17 17 17 17 17 16
16 16 17 19 19 19 15 14 13 16 16 14 14 15 15 16 15 13 14 13 13 14 13 14 15 15 15 15 15 15 14 14 14 15 18 19 17 17 17 17 17 17 17 17
15 15 17 16 17 19 13 15 16 14 13 12 14 14 14 13 13 13 14 13 14 14 13 13 14 14 14 15 16 16 14 13 13 15 16 15 16 16 16 16 16 16 16 15
15 15 14 15 16 13 13 13 12 12 12 12 13 13 13 14 13 13 14 13 13 13 13 13 13 13 13 13 15 15 13 14 14 14 15 15 15 15 15 15 15 15 15 14
16 12 14 14 14 14 14 12 11 11 11 12 12 13 13 13 13 13 12 12 12 12 13 13 12 13 13 13 13 13 13 13 14 14 14 14 14 14 14 14 14 14 13 13
16 13 14 15 14 13 14 12 12 12 12 12 13 13 12 13 13 13 13 12 12 12 12 12 12 12 12 12 12 12 12 12 12 12 12 13 13 14 14 14 14 13 13 12
14 17 16 16 14 13 14 12 12 13 12 11 12 13 12 14 13 12 12 12 12 12 11 11 11 12 11 12 12 12 12 12 12 13 13 13 13 13 13 13 13 12 12 12

GFSCGP_850_temp_096.txt.gz
Temp
27 27 28 29 30 30 30 30 30 31 32 31 31 31 32 32 32 33 33 34 32 29 29 26 25 24 23 22 23 23 22 21 21 20 19 18 19 18 18 19 18 17 19 19
28 26 29 30 29 29 29 29 29 31 31 31 31 31 32 32 33 33 33 34 33 31 29 26 25 24 23 22 22 24 23 22 22 20 20 19 19 19 19 19 18 17 18 18
27 29 30 28 27 27 28 29 29 29 31 32 31 30 31 33 33 33 33 33 33 31 30 27 25 25 24 23 22 25 24 23 23 21 19 19 19 19 19 18 18 18 17 17
28 29 29 28 27 28 28 30 29 29 29 28 32 29 31 32 32 34 34 34 33 31 29 28 25 25 24 23 22 26 25 24 23 22 20 19 20 20 19 19 19 18 19 18
28 27 27 27 28 29 28 29 29 29 29 29 30 29 30 32 31 33 34 35 34 33 30 29 27 25 25 24 23 27 27 26 24 23 21 20 21 21 20 19 19 19 18 20
27 27 27 28 28 29 29 28 28 28 28 27 29 29 30 31 32 33 35 35 34 34 33 30 29 26 25 24 23 26 24 25 26 24 23 22 20 20 20 20 20 19 18 19
28 29 29 28 27 29 28 28 26 26 27 27 29 29 30 32 33 33 33 33 34 33 33 31 30 28 25 25 23 23 24 24 26 24 24 23 22 22 22 21 20 19 18 19
27 27 28 29 28 28 28 28 26 24 24 24 26 27 29 32 33 32 32 31 31 31 32 32 32 30 26 25 24 23 24 25 25 25 25 24 23 22 21 20 20 19 18 17
26 27 29 29 30 30 27 26 29 26 27 26 26 27 31 32 32 32 31 30 29 27 27 28 29 30 28 25 24 23 22 24 25 25 25 24 24 23 20 20 21 19 18 18
26 24 29 29 29 29 29 29 27 27 23 24 25 27 28 30 31 31 30 29 27 25 25 26 27 28 27 25 24 23 21 21 24 24 25 25 24 23 22 22 21 20 19 19
26 25 27 28 28 28 28 28 27 28 26 24 26 28 31 30 31 29 30 27 25 24 24 25 26 25 25 24 24 22 21 20 20 23 25 25 24 23 22 21 21 21 19 19
25 25 25 27 29 28 28 27 27 27 26 27 27 28 32 30 30 27 27 25 21 21 22 23 23 23 24 23 22 22 21 20 19 20 23 24 23 22 22 21 22 21 19 17
24 25 24 26 28 27 27 26 27 27 27 25 26 27 31 28 28 25 24 23 21 19 19 19 22 22 22 22 21 21 20 20 20 19 19 20 20 22 22 22 22 21 18 17
22 24 23 24 25 26 25 26 26 25 25 26 27 28 30 27 24 22 20 20 20 21 18 18 18 19 19 19 19 19 19 19 20 20 20 20 19 19 19 21 22 21 19 17
23 21 23 24 25 25 26 25 26 26 26 25 26 27 28 21 18 18 18 18 18 19 19 19 18 18 18 18 18 19 19 19 19 19 18 18 19 19 19 18 18 18 18 18
23 21 23 23 24 26 25 25 26 25 25 25 26 25 21 18 20 19 21 21 19 17 18 18 18 17 17 17 16 17 17 18 19 20 21 20 18 18 18 18 18 17 18 19
20 21 22 22 24 25 23 25 25 24 24 23 23 22 20 20 21 19 19 20 20 18 17 16 18 22 16 15 16 17 19 20 20 22 22 21 18 18 18 18 18 18 17 17
19 19 21 21 22 21 25 24 23 22 21 21 20 19 17 17 17 17 16 18 18 17 17 15 16 17 16 15 16 20 17 18 22 21 19 21 22 21 19 19 18 17 17 17
20 19 21 21 22 24 25 22 22 21 20 18 18 18 18 18 18 19 16 16 16 16 15 14 15 15 16 17 17 15 15 17 17 18 18 16 19 20 20 20 18 17 18 18
20 19 19 22 21 22 20 20 18 20 19 17 16 17 17 18 20 21 16 16 15 14 14 14 13 14 14 13 13 15 16 16 16 17 17 16 16 17 19 19 19 18 18 18
19 18 18 21 21 21 19 18 17 19 16 15 15 16 16 17 19 17 15 15 14 14 13 14 14 14 13 13 13 15 15 14 14 13 13 14 15 17 17 18 19 18 17 18
17 18 18 19 20 20 18 19 18 15 15 16 16 16 17 17 15 14 14 13 13 13 13 13 13 15 15 14 13 15 16 15 14 15 13 13 13 14 16 19 17 17 17 16
16 17 16 17 18 18 17 16 14 15 14 13 13 16 16 14 14 14 13 13 13 12 13 13 13 12 14 15 15 15 16 16 15 13 13 14 15 16 15 14 15 15 15 15
18 17 17 17 18 18 17 16 13 14 14 13 14 15 14 13 13 13 13 12 12 12 13 12 13 12 12 13 13 14 14 15 15 13 13 13 13 13 14 14 15 15 13 13
17 16 14 15 18 17 16 15 15 14 14 14 14 14 13 13 11 11 12 11 12 11 12 12 12 12 11 11 11 13 13 13 13 13 13 13 13 13 12 13 14 13 14 13
18 18 19 17 16 16 16 15 15 15 15 14 14 13 13 13 13 11 11 11 11 12 11 11 11 12 11 11 12 13 13 13 12 12 11 12 12 13 12 13 12 13 13 13

GFSCGP_850_temp_102.txt.gz
Temp
30 29 28 29 31 31 31 31 31 32 34 33 33 34 35 36 36 36 36 36 35 35 35 32 30 29 27 25 24 23 22 21 20 20 19 19 19 19 19 20 20 20 20 20
30 29 31 32 32 32 31 31 31 32 33 33 33 32 34 35 35 35 35 35 35 35 35 34 30 29 27 25 24 23 22 21 20 20 21 19 19 19 19 20 20 20 20 20
30 32 33 33 32 31 31 31 31 31 32 33 32 31 33 34 35 34 34 35 35 34 34 34 30 29 27 26 25 24 23 22 21 20 20 20 20 20 20 20 20 20 20 20
31 32 32 32 31 31 30 33 32 31 31 29 32 30 32 33 34 35 35 35 35 35 34 34 30 29 28 26 25 24 23 22 21 21 20 20 20 20 21 21 20 21 20 20
31 31 31 31 31 32 30 32 31 31 30 30 30 30 31 31 31 32 30 32 35 35 35 35 30 29 28 26 25 24 24 22 20 22 20 21 21 21 21 21 21 21 20 20
31 32 32 32 32 31 32 31 30 31 30 29 30 28 28 28 27 29 30 31 32 35 35 35 31 29 28 27 25 23 24 22 20 22 21 21 21 21 21 22 22 21 21 21
31 32 33 32 31 32 31 30 28 28 29 29 31 29 29 29 30 30 29 29 31 34 35 35 31 29 28 27 26 23 23 22 20 21 21 21 21 22 22 22 22 21 21 21
29 29 31 32 31 30 30 30 28 26 27 28 30 27 29 31 30 29 29 30 31 33 32 34 30 29 28 27 26 25 23 23 21 20 21 22 21 22 22 21 21 21 22 20
27 28 31 31 32 31 30 29 31 29 29 29 29 28 29 30 30 30 30 29 24 22 31 31 31 30 29 27 27 26 24 22 22 21 21 22 21 22 22 21 21 22 21 20
28 26 29 31 31 32 31 31 29 29 26 26 28 25 28 27 27 29 28 23 19 23 22 22 30 30 29 28 27 26 25 23 23 22 21 22 22 23 21 21 21 21 21 21
28 27 27 29 29 30 30 29 29 27 26 25 26 27 24 24 24 20 15 13 14 22 19 20 25 28 30 30 28 27 25 24 22 22 21 21 23 21 21 21 21 21 21 22
27 26 25 27 29 30 30 26 27 25 22 25 24 25 25 22 22 20 16 14 15 18 19 22 21 24 26 29 29 27 26 24 23 22 21 21 20 21 21 21 21 21 21 21
26 24 23 25 28 29 27 28 26 24 25 23 21 25 25 24 23 19 21 18 18 21 21 19 18 20 21 24 27 27 26 24 23 21 21 20 20 21 21 21 21 21 21 21
25 24 23 23 25 26 26 27 28 27 25 25 25 25 22 19 19 19 19 22 21 20 18 17 18 19 19 21 22 23 23 24 22 22 22 21 21 21 21 21 20 20 21 21
25 23 24 25 26 26 26 26 27 27 27 26 26 25 19 16 16 15 15 17 19 18 18 19 21 20 19 20 22 20 19 20 22 21 21 21 20 20 21 21 20 20 21 20
25 23 23 23 25 25 25 27 27 28 28 28 26 20 17 16 16 16 16 18 19 16 16 19 21 20 19 16 17 19 20 18 18 18 17 17 16 16 15 20 22 20 20 19
23 23 22 22 24 25 24 26 27 26 26 23 23 20 17 19 21 21 20 19 18 18 16 16 16 18 20 18 15 16 18 20 19 17 15 16 16 17 16 15 17 19 19 19
24 23 23 22 23 21 25 26 23 21 16 18 19 22 21 20 19 19 18 18 18 18 17 16 15 16 18 17 15 16 17 20 20 18 16 17 17 16 16 16 18 18 19 19
26 24 23 22 23 24 26 21 21 19 16 16 20 21 21 20 20 15 15 16 17 16 16 15 15 15 16 15 16 15 16 17 17 17 17 16 15 15 15 16 18 18 18 19
24 19 15 17 17 21 18 19 17 16 17 21 20 20 19 19 16 13 15 15 16 15 16 16 15 15 15 15 15 15 15 17 16 16 16 16 16 16 15 16 17 17 17 18
21 20 16 15 17 20 16 17 16 19 19 20 19 18 18 18 15 14 13 14 16 15 15 15 15 15 15 14 14 13 13 14 14 16 16 16 16 15 16 16 17 17 17 17
20 18 19 19 18 17 16 15 15 17 19 19 18 17 16 15 15 15 14 15 15 15 15 15 15 14 14 14 13 12 12 12 12 14 16 16 16 16 16 16 16 16 16 17
19 18 18 18 17 20 18 17 18 18 19 18 17 16 16 14 15 14 14 15 14 15 15 15 14 14 14 14 13 12 12 13 14 14 14 15 16 16 16 15 15 14 15 17
19 20 19 19 20 20 20 18 18 17 17 17 16 14 14 14 14 13 14 14 14 14 14 14 14 14 14 13 13 13 13 13 13 13 14 14 15 14 14 14 15 15 15 15
21 20 19 19 20 20 19 17 16 17 16 15 15 14 14 14 14 13 13 13 13 14 14 13 13 14 13 13 13 13 13 13 13 13 13 14 14 14 13 14 14 15 15 15
21 20 20 17 20 20 18 16 15 15 15 15 15 14 13 13 13 13 13 13 13 13 13 13 13 13 13 13 13 13 12 12 12 13 14 13 13 14 14 14 14 14 14 15

GFSCGP_850_temp_105.txt.gz
Temp
28 24 22 24 25 26 27 27 27 28 30 29 29 29 29 31 32 32 34 33 33 31 30 30 29 27 26 26 25 24 23 22 22 21 20 20 20 20 20 20 19 19 20 20
25 23 26 28 28 28 28 27 26 28 29 29 27 27 29 30 29 32 33 34 34 34 33 29 28 27 27 26 25 25 24 23 22 22 21 21 20 20 20 20 20 19 20 20
25 27 30 30 29 29 27 26 27 27 29 28 27 26 26 29 31 32 33 33 34 34 34 29 27 27 27 26 26 26 25 24 23 22 21 20 20 20 19 20 20 19 20 20
28 30 30 30 29 29 25 28 29 28 25 23 28 25 25 27 27 27 29 30 30 31 33 34 29 27 27 28 26 26 26 25 23 23 22 21 20 20 20 20 20 20 20 20
26 28 28 28 29 30 27 28 28 28 25 25 26 23 24 28 26 26 28 30 30 31 32 31 31 29 29 28 27 26 26 25 24 23 22 21 20 20 20 20 20 20 20 20
27 30 29 29 31 31 30 28 26 25 24 22 25 24 24 25 27 26 28 29 30 29 29 27 28 29 30 28 26 25 26 25 24 23 22 22 21 20 20 20 20 20 20 20
27 28 30 32 30 30 29 24 20 20 20 22 24 24 24 26 27 26 26 28 26 28 27 26 24 28 26 26 26 26 25 25 24 23 22 22 22 21 21 21 21 21 21 20
24 23 27 29 28 27 26 25 20 22 21 23 24 25 22 21 19 18 21 22 25 27 26 22 23 22 26 27 26 26 25 25 24 23 23 22 22 21 21 21 21 21 21 21
24 24 27 28 29 28 26 24 25 23 24 22 24 25 24 21 19 19 18 18 20 25 22 21 23 21 22 23 25 26 24 24 24 24 23 23 21 21 21 21 21 22 22 21
24 21 25 28 28 28 27 27 23 21 21 20 22 21 19 18 18 18 18 18 20 24 25 20 22 20 20 21 21 23 25 25 25 23 23 23 22 21 21 21 21 21 21 21
25 22 22 25 24 24 25 23 23 22 21 20 19 20 20 20 18 17 16 19 20 21 23 15 19 19 23 24 22 20 25 24 24 23 22 22 22 21 20 22 21 21 21 21
24 22 19 21 24 26 26 25 23 19 20 19 19 20 21 20 19 17 17 18 19 19 19 20 17 19 16 14 18 24 25 25 23 22 21 21 21 21 20 21 22 21 22 21
24 20 18 19 21 25 23 24 24 21 20 20 19 19 21 19 19 18 16 17 17 17 18 18 19 20 16 17 19 22 23 22 21 20 21 21 21 21 21 21 21 22 21 21
24 20 19 18 20 22 22 24 24 22 21 20 20 22 19 17 17 17 17 17 18 18 17 17 16 15 16 18 19 20 20 23 21 20 21 20 20 19 19 20 20 21 22 22
21 20 20 21 23 23 23 23 24 23 23 22 19 18 17 17 15 16 17 18 17 17 18 15 16 15 16 20 20 21 20 18 20 21 19 19 18 17 18 17 17 17 19 22
20 18 19 19 22 23 23 24 24 24 22 21 20 17 15 17 17 16 17 18 18 18 19 16 16 15 16 19 20 20 18 17 16 19 18 18 17 16 16 17 17 16 14 18
18 18 18 18 20 21 20 20 20 18 17 19 17 17 16 17 16 13 15 17 18 18 17 16 16 15 15 17 18 18 20 19 16 17 17 18 18 19 19 19 17 17 17 15
18 16 18 18 18 18 19 18 18 18 18 17 17 17 19 19 14 15 16 16 16 17 16 15 16 15 15 16 17 17 17 21 17 16 16 18 18 17 18 19 19 19 16 14
21 19 18 16 17 19 20 17 15 14 16 17 16 16 19 19 16 15 15 15 16 16 16 16 15 15 15 15 15 16 16 16 15 15 15 16 16 18 16 17 16 17 18 18
17 15 14 14 15 16 16 18 18 15 16 18 18 16 17 16 14 13 16 15 15 16 15 16 15 15 14 14 14 15 14 14 14 13 14 15 15 15 15 16 17 15 15 17
18 17 16 14 15 17 17 17 18 16 15 13 13 17 16 15 14 16 15 14 14 15 15 15 15 14 14 14 15 13 13 12 12 13 14 14 14 15 15 15 15 15 16 17
17 15 15 15 15 16 17 17 17 15 15 16 16 17 16 15 14 14 14 15 14 15 15 14 14 14 14 14 15 15 15 14 15 15 15 14 14 14 14 15 15 15 16 16
17 16 15 15 15 17 18 18 17 16 16 17 17 16 16 16 15 14 16 14 14 15 14 14 14 14 14 13 13 14 14 14 15 15 15 14 14 14 14 14 14 14 14 14
17 19 16 17 18 19 19 18 17 17 17 17 16 15 15 15 15 14 13 13 14 14 14 14 14 14 14 13 13 13 13 13 13 14 14 13 13 14 14 14 14 14 15 15
18 19 18 17 17 19 19 17 17 17 16 16 15 14 14 14 14 14 13 13 13 14 14 14 14 14 13 13 13 13 14 13 13 13 13 14 14 14 14 14 14 14 14 14
19 18 17 15 19 18 17 17 16 16 16 15 15 14 13 13 13 13 13 13 13 13 13 13 13 13 13 13 13 13 13 13 13 13 13 13 14 14 14 14 14 14 14 14

GFSCGP_850_temp_111.txt.gz
Temp
24 21 20 21 20 22 22 21 21 22 24 24 23 22 25 26 27 28 27 25 24 24 28 29 23 23 23 23 24 24 23 23 21 21 21 20 20 20 20 19 20 20 20 19
21 21 22 23 22 21 21 21 21 22 23 21 23 25 24 24 26 27 27 25 25 25 25 25 24 23 24 24 23 24 24 23 22 21 21 21 21 21 21 20 20 20 20 19
21 24 25 24 24 23 21 21 21 22 24 24 25 22 22 24 25 26 26 27 26 26 26 27 26 25 24 24 25 25 25 24 23 22 21 21 21 20 20 20 20 20 19 19
22 24 25 24 24 23 24 23 24 25 23 22 23 21 22 19 21 21 22 23 24 25 27 27 28 27 26 25 25 25 23 25 24 23 22 21 21 21 21 21 20 19 19 19
24 25 25 24 25 26 24 25 25 25 21 22 22 19 21 17 19 19 19 20 22 24 24 25 25 25 25 24 23 23 24 23 24 23 22 22 22 22 22 20 20 20 20 20
23 26 26 26 26 26 25 24 20 17 17 19 21 20 19 18 19 17 19 18 18 19 25 26 25 24 24 24 23 23 23 22 22 23 23 23 22 22 22 21 20 21 20 20
22 25 25 25 24 23 21 19 18 20 18 19 19 20 19 20 19 18 17 18 19 20 21 23 25 26 26 26 26 24 23 22 21 21 21 20 21 21 21 22 22 21 21 21
21 22 25 25 24 24 22 19 18 20 18 19 19 20 20 20 20 19 19 18 19 20 18 21 22 23 23 24 26 24 23 22 21 20 20 22 21 22 21 21 22 22 22 22
21 22 23 24 25 23 22 20 20 18 17 18 18 21 21 19 19 19 18 18 19 19 19 20 20 21 19 19 21 23 22 20 20 20 19 21 21 21 22 21 22 22 22 22
22 21 21 23 24 22 23 21 19 15 19 20 18 20 19 20 19 17 16 16 18 19 19 19 19 20 19 18 19 19 19 19 18 18 18 19 20 20 22 22 22 22 23 22
20 19 21 21 21 21 18 19 18 15 15 17 16 17 18 19 19 17 16 17 16 17 18 18 19 19 19 18 18 18 18 18 19 19 19 19 19 20 21 21 21 22 22 22
20 16 18 21 20 19 20 20 16 15 16 15 15 15 17 18 17 17 17 17 16 15 17 18 18 18 19 18 17 17 18 19 19 21 23 21 20 21 21 21 21 20 21 21
21 16 16 17 18 18 21 20 19 14 12 16 15 16 17 16 16 17 16 17 17 16 17 17 18 19 17 18 17 17 18 19 20 19 22 23 20 19 19 20 20 20 21 21
19 14 16 15 18 18 19 19 20 16 14 15 15 17 16 16 15 15 17 17 17 17 17 16 18 18 17 18 17 17 15 16 18 20 20 21 19 19 18 19 19 19 20 20
17 18 16 16 17 18 19 19 19 18 16 16 18 16 17 16 14 15 15 15 16 16 16 16 16 16 16 17 18 17 15 15 15 20 19 19 19 19 18 18 19 18 18 19
14 16 17 17 18 19 18 19 18 18 18 17 17 16 16 16 15 15 15 15 15 16 16 17 16 15 16 16 17 17 16 15 15 17 18 17 17 17 17 17 18 19 18 18
15 14 14 16 17 16 15 17 17 17 16 16 15 16 14 14 14 15 15 14 14 15 16 16 15 15 15 15 15 17 17 15 15 15 16 17 16 15 18 17 17 18 16 17
14 12 11 13 15 15 16 16 17 16 16 16 14 14 14 14 15 15 15 14 14 15 16 16 15 15 15 14 15 15 15 15 15 16 17 18 16 15 14 15 14 15 15 13
12 11 12 14 13 15 16 16 16 16 15 14 14 13 14 15 14 15 15 14 15 15 16 16 15 14 14 14 13 13 14 14 14 15 14 15 15 16 16 15 14 14 14 14
11 10 12 12 15 15 16 16 16 14 13 13 13 13 13 14 13 12 16 15 15 16 16 16 14 14 14 13 13 14 14 14 14 14 14 14 14 14 14 14 14 15 15 15
11 11 12 12 13 13 15 16 15 14 13 15 15 15 14 12 14 15 16 15 15 15 15 14 14 14 14 13 13 14 14 14 13 13 14 14 14 14 14 14 14 15 15 16
13 12 11 11 13 14 16 15 15 15 17 17 16 16 15 16 16 15 15 15 15 15 14 13 14 14 14 14 14 14 14 13 13 14 14 14 14 14 15 14 14 15 16 15
12 11 12 12 12 15 17 17 18 18 17 17 16 16 16 15 16 15 15 15 15 14 13 13 14 14 14 13 14 14 13 13 13 14 14 14 14 14 14 14 14 14 15 15
13 12 12 13 16 15 17 18 18 17 17 17 16 15 15 15 15 15 15 15 15 14 15 14 13 13 13 13 13 13 13 13 13 13 13 13 14 14 14 14 14 14 14 14
14 13 13 12 14 15 17 16 16 17 16 15 15 14 14 14 14 14 13 14 14 14 14 13 13 13 13 13 13 13 13 13 13 13 13 13 13 14 14 14 14 14 14 14
14 13 11 12 16 15 16 17 16 15 14 14 14 14 13 13 13 13 13 13 13 13 13 13 13 13 13 13 13 13 13 12 12 12 13 13 13 13 14 14 14 14 14 14